格洛纳斯-751 COSMOS 2080 [GLONASS]

导读 | 星芒AI

COSMOS 2080 是俄罗斯 GLONASS 卫星导航系统的一部分,于1992年发射。该卫星用于提供高精度的全球定位和导航服务,主要服务于军事和民用领域。作为 GLONASS-M 系列卫星之一,COSMOS 2080 在轨道上运行多年,增强了俄罗斯在全球卫星导航领域的自主性和覆盖能力。其稳定运行对俄罗斯的交通、通信和国防系统具有重要意义。

基本信息
目录编号:
20620
目录名称:
COSMOS 2080 (GLONASS)
国际标识:
1990-045B
轨道中心:
EARTH
卫星名称:
格洛纳斯-751
卫星全名:
格洛纳斯-751 COSMOS 2080 [GLONASS]
卫星状态:
在轨 (已飞行12950 天)
发射日期:
1990-05-19 UTC
国别 :
俄罗斯(独联体) (CIS)
星等 :
--
轨道信息
数据来源 国际轨道数据
星历时间: 2025-10-30T06:59:44+0800
2天前
查看轨道信息
半长轴: 25507.961km
偏心率: 0.0023833
轨道倾角: 64.851°
近地点辐角 28.157°
升交点赤经 316.330°
平近点角 329.257°
近地点: 19069.032km
远地点: 19190.62km
周期: 675.730分钟
每日圈数: 2.131028
详细信息
平衡模式:
三轴稳定
覆盖范围:
全球
运营商:
列舍特涅夫卫星信息系统
运营商所在国:
俄罗斯
制造商(研发单位):
列舍特涅夫卫星信息系统
制造商所在国:
俄罗斯
使用方式:
暂无
卫星简介
格洛纳斯(GLONASS )是苏联/俄罗斯研制卫星导航系统。标准配置为24颗卫星,其中18颗卫星就能保证该系统为俄罗斯境内用户提供全部服务。该卫星已退役。
2D轨道图
3D轨道图
轨道高度分析图
轨道倾角分析图
轨道综合分析图
查看轨道综合分析图